This is the latest recevied weather packets stored in our database for station/object G6UIM. If no packets are shown the sender has not sent any weather packets the latest 10 day(s).
| Time | Temp. | Humidity | Pressure | Rain* | Wind** | Luminosity | Snow |
|---|---|---|---|---|---|---|---|
| 1777408217 | 12.22° C | 75% | 1023.4 hPa | 0 mm | - | 0 W/m² | - |
| 1777401617 | 12.22° C | 75% | 1022.9 hPa | 0 mm | - | 26 W/m² | - |
| 1777400416 | 12.78° C | 75% | 1022.8 hPa | 0 mm | - | 33 W/m² | - |
| 1777398037 | 12.78° C | 75% | 1023.1 hPa | 0 mm | - | 45 W/m² | - |
| 1777393216 | 12.78° C | 75% | 1023.7 hPa | 0 mm | - | 384 W/m² | - |
| 1777390816 | 12.78° C | 76% | 1023.9 hPa | 0 mm | - | 546 W/m² | - |
| 1777386016 | 12.78° C | 76% | 1024.3 hPa | 0 mm | - | 346 W/m² | - |
| 1777378216 | 12.22° C | 77% | 1024.6 hPa | 0 mm | - | 168 W/m² | - |
| 1777377016 | 12.22° C | 77% | 1024.7 hPa | 0 mm | - | 238 W/m² | - |
| 1777372236 | 11.11° C | 80% | 1024.5 hPa | 0 mm | - | 263 W/m² | - |
| 1777368016 | 11.11° C | 80% | 1024.5 hPa | 0 mm | - | 144 W/m² | - |
| 1777365036 | 10.56° C | 79% | 1024.7 hPa | 0 mm | - | 136 W/m² | - |
| 1777360238 | 10° C | 78% | 1025 hPa | 0 mm | - | 108 W/m² | - |
| 1777358438 | 10° C | 80% | 1025.1 hPa | 0 mm | - | 46 W/m² | - |
| 1777355417 | 10° C | 82% | 1024.5 hPa | 0 mm | - | 29 W/m² | - |
| 1777353039 | 10.56° C | 82% | 1024.2 hPa | 0 mm | - | 7 W/m² | - |
| 1777348838 | 11.11° C | 79% | 1024.2 hPa | 0 mm | - | 0 W/m² | - |
| 1777348237 | 11.11° C | 78% | 1024.3 hPa | 0 mm | - | 0 W/m² | - |
| 1777344617 | 12.22° C | 77% | 1024.6 hPa | 0 mm | - | 0 W/m² | - |
| 1777342217 | 12.22° C | 77% | 1024.8 hPa | 0 mm | - | 0 W/m² | - |
| 1777341017 | 12.78° C | 77% | 1024.8 hPa | 0 mm | - | 0 W/m² | - |
| 1777338617 | 12.78° C | 77% | 1024.6 hPa | 0 mm | - | 0 W/m² | - |
| 1777338017 | 12.22° C | 77% | 1024.3 hPa | 0 mm | - | 0 W/m² | - |
| 1777337417 | 12.22° C | 77% | 1024.4 hPa | 0 mm | - | 0 W/m² | - |
* Rain latest hour (hover to see other rain measurements)
** Current wind speed in m/s (hover to see current wind gust speed)